Location: Unspecified
(33.6682°S, 0.0000°E)
Time: 05:26:23
(UTC+00:00)

Vanguard 2 Rocket - Pass Details

Date: 22 June 2019
Orbit: 553 x 3327 km, 32.9° (Epoch: 21 August)

Event Time Altitude Azimuth Distance (km) Brightness Sun altitude
Rises 08:58:51 0° 296° (WNW) 6,897 11.2 18.2°
Reaches altitude 10° 09:03:59 10° 298° (WNW) 5,567 10.8 18.9°
Maximum altitude 09:19:12 68° 16° (NNE) 1,965 9.3 21.0°
Drops below altitude 10° 09:27:39 10° 97° (E) 3,258 10.3 22.1°
Sets 09:29:54 0° 99° (E) 3,961 10.6 22.4°
